Year,Month,Day,Hour,Minute,Value (Times are PST for temperature in C)
2002,07,21,00,00,16.20
2002,07,21,00,01,16.20
2002,07,21,00,02,16.20
2002,07,21,00,03,16.20
2002,07,21,00,04,16.20
2002,07,21,00,05,16.20
2002,07,21,00,06,16.20
2002,07,21,00,07,16.20
2002,07,21,00,08,16.30
2002,07,21,00,09,16.30
2002,07,21,00,10,16.30
2002,07,21,00,11,16.30
2002,07,21,00,12,16.30
2002,07,21,00,13,16.20
2002,07,21,00,14,16.20
2002,07,21,00,15,16.10
2002,07,21,00,16,16.10
2002,07,21,00,17,16.10
2002,07,21,00,18,16.10
2002,07,21,00,19,16.10
2002,07,21,00,20,16.10
2002,07,21,00,21,16.10
2002,07,21,00,22,16.10
2002,07,21,00,23,16.10
2002,07,21,00,24,16.00
2002,07,21,00,25,15.90
2002,07,21,00,26,15.80
2002,07,21,00,27,15.80
2002,07,21,00,28,15.80
2002,07,21,00,29,15.80
2002,07,21,00,30,15.80
2002,07,21,00,31,15.80
2002,07,21,00,32,15.80
2002,07,21,00,33,15.80
2002,07,21,00,34,15.80
2002,07,21,00,35,15.80
2002,07,21,00,36,15.80
2002,07,21,00,37,15.80
2002,07,21,00,38,15.80
2002,07,21,00,39,15.80
2002,07,21,00,40,15.80
2002,07,21,00,41,15.80
2002,07,21,00,42,15.70
2002,07,21,00,43,15.70
2002,07,21,00,44,15.70
2002,07,21,00,45,15.60
2002,07,21,00,46,15.60
2002,07,21,00,47,15.50
2002,07,21,00,48,15.50
2002,07,21,00,49,15.40
2002,07,21,00,50,15.40
2002,07,21,00,51,15.40
2002,07,21,00,52,15.30
2002,07,21,00,53,15.30
2002,07,21,00,54,15.30
2002,07,21,00,55,15.30
2002,07,21,00,56,15.30
2002,07,21,00,57,15.30
2002,07,21,00,58,15.30
2002,07,21,00,59,15.30
2002,07,21,01,00,15.30
2002,07,21,01,01,15.30
2002,07,21,01,02,15.30
2002,07,21,01,03,15.30
2002,07,21,01,04,15.30
2002,07,21,01,05,15.30
2002,07,21,01,06,15.30
2002,07,21,01,07,15.30
2002,07,21,01,08,15.30
2002,07,21,01,09,15.30
2002,07,21,01,10,15.30
2002,07,21,01,11,15.30
2002,07,21,01,12,15.20
2002,07,21,01,13,15.20
2002,07,21,01,14,15.10
2002,07,21,01,15,15.10
2002,07,21,01,16,15.10
2002,07,21,01,17,15.00
2002,07,21,01,18,15.00
2002,07,21,01,19,14.90
2002,07,21,01,20,14.90
2002,07,21,01,21,14.90
2002,07,21,01,22,14.80
2002,07,21,01,23,14.80
2002,07,21,01,24,14.80
2002,07,21,01,25,14.80
2002,07,21,01,26,14.80
2002,07,21,01,27,14.80
2002,07,21,01,28,14.80
2002,07,21,01,29,14.80
2002,07,21,01,30,14.80
2002,07,21,01,31,14.80
2002,07,21,01,32,14.70
2002,07,21,01,33,14.70
2002,07,21,01,34,14.70
2002,07,21,01,35,14.70
2002,07,21,01,36,14.70
2002,07,21,01,37,14.70
2002,07,21,01,38,14.70
2002,07,21,01,39,14.80
2002,07,21,01,40,14.80
2002,07,21,01,41,14.80
2002,07,21,01,42,14.80
2002,07,21,01,43,14.70
2002,07,21,01,44,14.70
2002,07,21,01,45,14.80
2002,07,21,01,46,14.80
2002,07,21,01,47,14.80
2002,07,21,01,48,14.70
2002,07,21,01,49,14.70
2002,07,21,01,50,14.70
2002,07,21,01,51,14.70
2002,07,21,01,52,14.70
2002,07,21,01,53,14.80
2002,07,21,01,54,14.80
2002,07,21,01,55,14.80
2002,07,21,01,56,14.80
2002,07,21,01,57,14.80
2002,07,21,01,58,14.80
2002,07,21,01,59,14.80
2002,07,21,02,00,14.80
2002,07,21,02,01,14.80
2002,07,21,02,02,14.60
2002,07,21,02,03,14.50
2002,07,21,02,04,14.40
2002,07,21,02,05,14.30
2002,07,21,02,06,14.10
2002,07,21,02,07,14.10
2002,07,21,02,08,14.00
2002,07,21,02,09,14.00
2002,07,21,02,10,13.90
2002,07,21,02,11,13.80
2002,07,21,02,12,13.80
2002,07,21,02,13,13.80
2002,07,21,02,14,13.70
2002,07,21,02,15,13.70
2002,07,21,02,16,13.70
2002,07,21,02,17,13.70
2002,07,21,02,18,13.70
2002,07,21,02,19,13.70
2002,07,21,02,20,13.70
2002,07,21,02,21,13.70
2002,07,21,02,22,13.70
2002,07,21,02,23,13.70
2002,07,21,02,24,13.70
2002,07,21,02,25,13.70
2002,07,21,02,26,13.70
2002,07,21,02,27,13.70
2002,07,21,02,28,13.70
2002,07,21,02,29,13.70
2002,07,21,02,30,13.70
2002,07,21,02,31,13.70
2002,07,21,02,32,13.70
2002,07,21,02,33,13.70
2002,07,21,02,34,13.70
2002,07,21,02,35,13.70
2002,07,21,02,36,13.60
2002,07,21,02,37,13.60
2002,07,21,02,38,13.60
2002,07,21,02,39,13.50
2002,07,21,02,40,13.50
2002,07,21,02,41,13.50
2002,07,21,02,42,13.40
2002,07,21,02,43,13.30
2002,07,21,02,44,13.30
2002,07,21,02,45,13.20
2002,07,21,02,46,13.20
2002,07,21,02,47,13.10
2002,07,21,02,48,13.10
2002,07,21,02,49,13.10
2002,07,21,02,50,13.10
2002,07,21,02,51,13.10
2002,07,21,02,52,13.10
2002,07,21,02,53,13.10
2002,07,21,02,54,13.20
2002,07,21,02,55,13.20
2002,07,21,02,56,13.20
2002,07,21,02,57,13.20
2002,07,21,02,58,13.20
2002,07,21,02,59,13.20
2002,07,21,03,00,13.20
2002,07,21,03,01,13.20
2002,07,21,03,02,13.20
2002,07,21,03,03,13.20
2002,07,21,03,04,13.20
2002,07,21,03,05,13.20
2002,07,21,03,06,13.30
2002,07,21,03,07,13.30
2002,07,21,03,08,13.30
2002,07,21,03,09,13.30
2002,07,21,03,10,13.30
2002,07,21,03,11,13.30
2002,07,21,03,12,13.30
2002,07,21,03,13,13.30
2002,07,21,03,14,13.30
2002,07,21,03,15,13.30
2002,07,21,03,16,13.30
2002,07,21,03,17,13.30
2002,07,21,03,18,13.30
2002,07,21,03,19,13.30
2002,07,21,03,20,13.30
2002,07,21,03,21,13.20
2002,07,21,03,22,13.20
2002,07,21,03,23,13.20
2002,07,21,03,24,13.10
2002,07,21,03,25,13.00
2002,07,21,03,26,13.00
2002,07,21,03,27,12.90
2002,07,21,03,28,12.90
2002,07,21,03,29,12.90
2002,07,21,03,30,12.90
2002,07,21,03,31,12.90
2002,07,21,03,32,12.90
2002,07,21,03,33,12.90
2002,07,21,03,34,12.90
2002,07,21,03,35,12.90
2002,07,21,03,36,13.00
2002,07,21,03,37,13.00
2002,07,21,03,38,13.10
2002,07,21,03,39,13.10
2002,07,21,03,40,13.10
2002,07,21,03,41,13.10
2002,07,21,03,42,13.10
2002,07,21,03,43,13.10
2002,07,21,03,44,13.10
2002,07,21,03,45,13.10
2002,07,21,03,46,13.10
2002,07,21,03,47,13.20
2002,07,21,03,48,13.20
2002,07,21,03,49,13.10
2002,07,21,03,50,13.10
2002,07,21,03,51,13.10
2002,07,21,03,52,13.10
2002,07,21,03,53,13.10
2002,07,21,03,54,13.20
2002,07,21,03,55,13.20
2002,07,21,03,56,13.20
2002,07,21,03,57,13.20
2002,07,21,03,58,13.30
2002,07,21,03,59,13.30
2002,07,21,04,00,13.30
2002,07,21,04,01,13.30
2002,07,21,04,02,13.30
2002,07,21,04,03,13.30
2002,07,21,04,04,13.30
2002,07,21,04,05,13.30
2002,07,21,04,06,13.30
2002,07,21,04,07,13.30
2002,07,21,04,08,13.30
2002,07,21,04,09,13.30
2002,07,21,04,10,13.20
2002,07,21,04,11,13.20
2002,07,21,04,12,13.20
2002,07,21,04,13,13.20
2002,07,21,04,14,13.20
2002,07,21,04,15,13.20
2002,07,21,04,16,13.20
2002,07,21,04,17,13.20
2002,07,21,04,18,13.20
2002,07,21,04,19,13.20
2002,07,21,04,20,13.30
2002,07,21,04,21,13.30
2002,07,21,04,22,13.30
2002,07,21,04,23,13.30
2002,07,21,04,24,13.40
2002,07,21,04,25,13.40
2002,07,21,04,26,13.40
2002,07,21,04,27,13.50
2002,07,21,04,28,13.50
2002,07,21,04,29,13.50
2002,07,21,04,30,13.50
2002,07,21,04,31,13.60
2002,07,21,04,32,13.60
2002,07,21,04,33,13.60
2002,07,21,04,34,13.60
2002,07,21,04,35,13.60
2002,07,21,04,36,13.70
2002,07,21,04,37,13.70
2002,07,21,04,38,13.70
2002,07,21,04,39,13.70
2002,07,21,04,40,13.70
2002,07,21,04,41,13.70
2002,07,21,04,42,13.70
2002,07,21,04,43,13.70
2002,07,21,04,44,13.70
2002,07,21,04,45,13.70
2002,07,21,04,46,13.70
2002,07,21,04,47,13.60
2002,07,21,04,48,13.60
2002,07,21,04,49,13.60
2002,07,21,04,50,13.60
2002,07,21,04,51,13.60
2002,07,21,04,52,13.50
2002,07,21,04,53,13.50
2002,07,21,04,54,13.50
2002,07,21,04,55,13.50
2002,07,21,04,56,13.40
2002,07,21,04,57,13.40
2002,07,21,04,58,13.40
2002,07,21,04,59,13.40
2002,07,21,05,00,13.30
2002,07,21,05,01,13.30
2002,07,21,05,02,13.30
2002,07,21,05,03,13.30
2002,07,21,05,04,13.30
2002,07,21,05,05,13.30
2002,07,21,05,06,13.30
2002,07,21,05,07,13.30
2002,07,21,05,08,13.30
2002,07,21,05,09,13.20
2002,07,21,05,10,13.20
2002,07,21,05,11,13.20
2002,07,21,05,12,13.20
2002,07,21,05,13,13.20
2002,07,21,05,14,13.20
2002,07,21,05,15,13.10
2002,07,21,05,16,13.10
2002,07,21,05,17,13.10
2002,07,21,05,18,13.10
2002,07,21,05,19,13.10
2002,07,21,05,20,13.10
2002,07,21,05,21,13.10
2002,07,21,05,22,13.10
2002,07,21,05,23,13.10
2002,07,21,05,24,13.10
2002,07,21,05,25,13.10
2002,07,21,05,26,13.10
2002,07,21,05,27,13.10
2002,07,21,05,28,13.10
2002,07,21,05,29,13.10
2002,07,21,05,30,13.20
2002,07,21,05,31,13.20
2002,07,21,05,32,13.20
2002,07,21,05,33,13.20
2002,07,21,05,34,13.30
2002,07,21,05,35,13.30
2002,07,21,05,36,13.30
2002,07,21,05,37,13.30
2002,07,21,05,38,13.30
2002,07,21,05,39,13.30
2002,07,21,05,40,13.30
2002,07,21,05,41,13.30
2002,07,21,05,42,13.30
2002,07,21,05,43,13.30
2002,07,21,05,44,13.30
2002,07,21,05,45,13.30
2002,07,21,05,46,13.30
2002,07,21,05,47,13.30
2002,07,21,05,48,13.30
2002,07,21,05,49,13.30
2002,07,21,05,50,13.30
2002,07,21,05,51,13.30
2002,07,21,05,52,13.30
2002,07,21,05,53,13.30
2002,07,21,05,54,13.30
2002,07,21,05,55,13.30
2002,07,21,05,56,13.30
2002,07,21,05,57,13.30
2002,07,21,05,58,13.40
2002,07,21,05,59,13.50
2002,07,21,06,00,13.50
2002,07,21,06,01,13.60
2002,07,21,06,02,13.60
2002,07,21,06,03,13.70
2002,07,21,06,04,13.70
2002,07,21,06,05,13.70
2002,07,21,06,06,13.70
2002,07,21,06,07,13.80
2002,07,21,06,08,13.90
2002,07,21,06,09,13.90
2002,07,21,06,10,14.00
2002,07,21,06,11,14.10
2002,07,21,06,12,14.20
2002,07,21,06,13,14.20
2002,07,21,06,14,14.30
2002,07,21,06,15,14.40
2002,07,21,06,16,14.40
2002,07,21,06,17,14.50
2002,07,21,06,18,14.60
2002,07,21,06,19,14.70
2002,07,21,06,20,14.70
2002,07,21,06,21,14.80
2002,07,21,06,22,14.90
2002,07,21,06,23,15.00
2002,07,21,06,24,15.00
2002,07,21,06,25,15.10
2002,07,21,06,26,15.10
2002,07,21,06,27,15.20
2002,07,21,06,28,15.30
2002,07,21,06,29,15.30
2002,07,21,06,30,15.40
2002,07,21,06,31,15.40
2002,07,21,06,32,15.50
2002,07,21,06,33,15.60
2002,07,21,06,34,15.60
2002,07,21,06,35,15.60
2002,07,21,06,36,15.70
2002,07,21,06,37,15.70
2002,07,21,06,38,15.80
2002,07,21,06,39,15.80
2002,07,21,06,40,15.90
2002,07,21,06,41,15.90
2002,07,21,06,42,16.00
2002,07,21,06,43,16.10
2002,07,21,06,44,16.10
2002,07,21,06,45,16.00
2002,07,21,06,46,16.00
2002,07,21,06,47,15.90
2002,07,21,06,48,15.80
2002,07,21,06,49,15.90
2002,07,21,06,50,15.90
2002,07,21,06,51,15.90
2002,07,21,06,52,16.00
2002,07,21,06,53,16.10
2002,07,21,06,54,16.10
2002,07,21,06,55,16.20
2002,07,21,06,56,16.30
2002,07,21,06,57,16.40
2002,07,21,06,58,16.50
2002,07,21,06,59,16.60
2002,07,21,07,00,16.70
2002,07,21,07,01,16.80
2002,07,21,07,02,17.00
2002,07,21,07,03,17.10
2002,07,21,07,04,17.20
2002,07,21,07,05,17.30
2002,07,21,07,06,17.30
2002,07,21,07,07,17.30
2002,07,21,07,08,17.30
2002,07,21,07,09,17.30
2002,07,21,07,10,17.30
2002,07,21,07,11,17.40
2002,07,21,07,12,17.40
2002,07,21,07,13,17.40
2002,07,21,07,14,17.40
2002,07,21,07,15,17.40
2002,07,21,07,16,17.40
2002,07,21,07,17,17.40
2002,07,21,07,18,17.40
2002,07,21,07,19,17.50
2002,07,21,07,20,17.50
2002,07,21,07,21,17.50
2002,07,21,07,22,17.60
2002,07,21,07,23,17.60
2002,07,21,07,24,17.70
2002,07,21,07,25,17.70
2002,07,21,07,26,17.80
2002,07,21,07,27,17.80
2002,07,21,07,28,17.90
2002,07,21,07,29,17.90
2002,07,21,07,30,17.90
2002,07,21,07,31,17.90
2002,07,21,07,32,18.00
2002,07,21,07,33,18.20
2002,07,21,07,34,18.20
2002,07,21,07,35,18.20
2002,07,21,07,36,18.20
2002,07,21,07,37,18.30
2002,07,21,07,38,18.40
2002,07,21,07,39,18.40
2002,07,21,07,40,18.40
2002,07,21,07,41,18.40
2002,07,21,07,42,18.40
2002,07,21,07,43,18.40
2002,07,21,07,44,18.50
2002,07,21,07,45,18.50
2002,07,21,07,46,18.50
2002,07,21,07,47,18.60
2002,07,21,07,48,18.60
2002,07,21,07,49,18.60
2002,07,21,07,50,18.60
2002,07,21,07,51,18.60
2002,07,21,07,52,18.60
2002,07,21,07,53,18.60
2002,07,21,07,54,18.60
2002,07,21,07,55,18.60
2002,07,21,07,56,18.60
2002,07,21,07,57,18.60
2002,07,21,07,58,18.60
2002,07,21,07,59,18.60
2002,07,21,08,00,18.60
2002,07,21,08,01,18.60
2002,07,21,08,02,18.60
2002,07,21,08,03,18.60
2002,07,21,08,04,18.60
2002,07,21,08,05,18.60
2002,07,21,08,06,18.60
2002,07,21,08,07,18.60
2002,07,21,08,08,18.70
2002,07,21,08,09,18.70
2002,07,21,08,10,18.70
2002,07,21,08,11,18.80
2002,07,21,08,12,18.80
2002,07,21,08,13,18.90
2002,07,21,08,14,18.90
2002,07,21,08,15,18.90
2002,07,21,08,16,18.90
2002,07,21,08,17,18.90
2002,07,21,08,18,18.90
2002,07,21,08,19,18.90
2002,07,21,08,20,18.90
2002,07,21,08,21,18.90
2002,07,21,08,22,18.90
2002,07,21,08,23,18.90
2002,07,21,08,24,18.90
2002,07,21,08,25,18.90
2002,07,21,08,26,19.00
2002,07,21,08,27,19.10
2002,07,21,08,28,19.10
2002,07,21,08,29,19.10
2002,07,21,08,30,19.20
2002,07,21,08,31,19.30
2002,07,21,08,32,19.30
2002,07,21,08,33,19.30
2002,07,21,08,34,19.30
2002,07,21,08,35,19.30
2002,07,21,08,36,19.20
2002,07,21,08,37,19.20
2002,07,21,08,38,19.20
2002,07,21,08,39,19.20
2002,07,21,08,40,19.20
2002,07,21,08,41,19.30
2002,07,21,08,42,19.40
2002,07,21,08,43,19.50
2002,07,21,08,44,19.60
2002,07,21,08,45,19.70
2002,07,21,08,46,19.80
2002,07,21,08,47,19.80
2002,07,21,08,48,19.90
2002,07,21,08,49,19.90
2002,07,21,08,50,19.90
2002,07,21,08,51,19.90
2002,07,21,08,52,19.90
2002,07,21,08,53,19.90
2002,07,21,08,54,19.90
2002,07,21,08,55,19.90
2002,07,21,08,56,19.80
2002,07,21,08,57,19.80
2002,07,21,08,58,19.80
2002,07,21,08,59,19.80
2002,07,21,09,00,19.80
2002,07,21,09,01,19.70
2002,07,21,09,02,19.80
2002,07,21,09,03,19.80
2002,07,21,09,04,19.80
2002,07,21,09,05,19.80
2002,07,21,09,06,19.70
2002,07,21,09,07,19.70
2002,07,21,09,08,19.80
2002,07,21,09,09,19.80
2002,07,21,09,10,19.80
2002,07,21,09,11,19.80
2002,07,21,09,12,19.70
2002,07,21,09,13,19.70
2002,07,21,09,14,19.70
2002,07,21,09,15,19.60
2002,07,21,09,16,19.60
2002,07,21,09,17,19.60
2002,07,21,09,18,19.50
2002,07,21,09,19,19.50
2002,07,21,09,20,19.50
2002,07,21,09,21,19.50
2002,07,21,09,22,19.50
2002,07,21,09,23,19.60
2002,07,21,09,24,19.60
2002,07,21,09,25,19.70
2002,07,21,09,26,19.90
2002,07,21,09,27,19.90
2002,07,21,09,28,19.90
2002,07,21,09,29,19.90
2002,07,21,09,30,19.90
2002,07,21,09,31,19.90
2002,07,21,09,32,19.90
2002,07,21,09,33,20.00
2002,07,21,09,34,19.90
2002,07,21,09,35,20.00
2002,07,21,09,36,20.00
2002,07,21,09,37,19.90
2002,07,21,09,38,20.00
2002,07,21,09,39,20.10
2002,07,21,09,40,20.10
2002,07,21,09,41,20.10
2002,07,21,09,42,20.10
2002,07,21,09,43,20.10
2002,07,21,09,44,20.20
2002,07,21,09,45,20.20
2002,07,21,09,46,20.20
2002,07,21,09,47,20.20
2002,07,21,09,48,20.30
2002,07,21,09,49,20.20
2002,07,21,09,50,20.20
2002,07,21,09,51,20.20
2002,07,21,09,52,20.20
2002,07,21,09,53,20.20
2002,07,21,09,54,20.20
2002,07,21,09,55,20.20
2002,07,21,09,56,20.30
2002,07,21,09,57,20.40
2002,07,21,09,58,20.50
2002,07,21,09,59,20.50
2002,07,21,10,00,20.50
2002,07,21,10,01,20.50
2002,07,21,10,02,20.50
2002,07,21,10,03,20.60
2002,07,21,10,04,20.70
2002,07,21,10,05,20.70
2002,07,21,10,06,20.70
2002,07,21,10,07,20.70
2002,07,21,10,08,20.60
2002,07,21,10,09,20.70
2002,07,21,10,10,20.70
2002,07,21,10,11,20.80
2002,07,21,10,12,20.90
2002,07,21,10,13,21.00
2002,07,21,10,14,21.20
2002,07,21,10,15,21.30
2002,07,21,10,16,21.30
2002,07,21,10,17,21.30
2002,07,21,10,18,21.30
2002,07,21,10,19,21.40
2002,07,21,10,20,21.30
2002,07,21,10,21,21.30
2002,07,21,10,22,21.30
2002,07,21,10,23,21.20
2002,07,21,10,24,21.20
2002,07,21,10,25,21.20
2002,07,21,10,26,21.10
2002,07,21,10,27,21.10
2002,07,21,10,28,21.10
2002,07,21,10,29,21.20
2002,07,21,10,30,21.20
2002,07,21,10,31,21.30
2002,07,21,10,32,21.30
2002,07,21,10,33,21.30
2002,07,21,10,34,21.30
2002,07,21,10,35,21.30
2002,07,21,10,36,21.30
2002,07,21,10,37,21.20
2002,07,21,10,38,21.30
2002,07,21,10,39,21.30
2002,07,21,10,40,21.30
2002,07,21,10,41,21.30
2002,07,21,10,42,21.30
2002,07,21,10,43,21.30
2002,07,21,10,44,21.30
2002,07,21,10,45,21.30
2002,07,21,10,46,21.30
2002,07,21,10,47,21.50
2002,07,21,10,48,21.60
2002,07,21,10,49,21.70
2002,07,21,10,50,21.80
2002,07,21,10,51,21.90
2002,07,21,10,52,22.00
2002,07,21,10,53,22.10
2002,07,21,10,54,22.20
2002,07,21,10,55,22.20
2002,07,21,10,56,22.20
2002,07,21,10,57,22.10
2002,07,21,10,58,22.10
2002,07,21,10,59,22.10
2002,07,21,11,00,22.10
2002,07,21,11,01,22.20
2002,07,21,11,02,22.20
2002,07,21,11,03,22.20
2002,07,21,11,04,22.30
2002,07,21,11,05,22.30
2002,07,21,11,06,22.40
2002,07,21,11,07,22.40
2002,07,21,11,08,22.30
2002,07,21,11,09,22.30
2002,07,21,11,10,22.20
2002,07,21,11,11,22.20
2002,07,21,11,12,22.20
2002,07,21,11,13,22.30
2002,07,21,11,14,22.40
2002,07,21,11,15,22.60
2002,07,21,11,16,22.60
2002,07,21,11,17,22.60
2002,07,21,11,18,22.60
2002,07,21,11,19,22.60
2002,07,21,11,20,22.60
2002,07,21,11,21,22.40
2002,07,21,11,22,22.40
2002,07,21,11,23,22.50
2002,07,21,11,24,22.50
2002,07,21,11,25,22.70
2002,07,21,11,26,22.80
2002,07,21,11,27,22.90
2002,07,21,11,28,23.00
2002,07,21,11,29,23.10
2002,07,21,11,30,23.00
2002,07,21,11,31,22.90
2002,07,21,11,32,22.70
2002,07,21,11,33,22.60
2002,07,21,11,34,22.50
2002,07,21,11,35,22.30
2002,07,21,11,36,22.30
2002,07,21,11,37,22.20
2002,07,21,11,38,22.20
2002,07,21,11,39,22.20
2002,07,21,11,40,22.20
2002,07,21,11,41,22.40
2002,07,21,11,42,22.40
2002,07,21,11,43,22.40
2002,07,21,11,44,22.50
2002,07,21,11,45,22.60
2002,07,21,11,46,22.70
2002,07,21,11,47,22.80
2002,07,21,11,48,22.90
2002,07,21,11,49,23.10
2002,07,21,11,50,23.10
2002,07,21,11,51,23.10
2002,07,21,11,52,23.10
2002,07,21,11,53,23.20
2002,07,21,11,54,23.30
2002,07,21,11,55,23.30
2002,07,21,11,56,23.10
2002,07,21,11,57,23.00
2002,07,21,11,58,22.90
2002,07,21,11,59,22.90
2002,07,21,12,00,22.90
2002,07,21,12,01,22.90
2002,07,21,12,02,22.90
2002,07,21,12,03,22.90
2002,07,21,12,04,23.00
2002,07,21,12,05,23.10
2002,07,21,12,06,23.10
2002,07,21,12,07,23.10
2002,07,21,12,08,23.10
2002,07,21,12,09,23.10
2002,07,21,12,10,23.10
2002,07,21,12,11,23.10
2002,07,21,12,12,23.10
2002,07,21,12,13,22.90
2002,07,21,12,14,22.80
2002,07,21,12,15,22.80
2002,07,21,12,16,22.90
2002,07,21,12,17,23.10
2002,07,21,12,18,23.30
2002,07,21,12,19,23.50
2002,07,21,12,20,23.70
2002,07,21,12,21,23.70
2002,07,21,12,22,23.70
2002,07,21,12,23,23.60
2002,07,21,12,24,23.60
2002,07,21,12,25,23.50
2002,07,21,12,26,23.40
2002,07,21,12,27,23.50
2002,07,21,12,28,23.60
2002,07,21,12,29,23.60
2002,07,21,12,30,23.60
2002,07,21,12,31,23.60
2002,07,21,12,32,23.70
2002,07,21,12,33,23.70
2002,07,21,12,34,23.70
2002,07,21,12,35,23.70
2002,07,21,12,36,23.70
2002,07,21,12,37,23.70
2002,07,21,12,38,23.60
2002,07,21,12,39,23.70
2002,07,21,12,40,23.70
2002,07,21,12,41,23.70
2002,07,21,12,42,23.70
2002,07,21,12,43,23.70
2002,07,21,12,44,23.70
2002,07,21,12,45,23.70
2002,07,21,12,46,23.70
2002,07,21,12,47,23.70
2002,07,21,12,48,23.80
2002,07,21,12,49,24.00
2002,07,21,12,50,24.10
2002,07,21,12,51,24.10
2002,07,21,12,52,24.10
2002,07,21,12,53,24.10
2002,07,21,12,54,24.10
2002,07,21,12,55,24.20
2002,07,21,12,56,24.20
2002,07,21,12,57,24.10
2002,07,21,12,58,24.10
2002,07,21,12,59,24.10
2002,07,21,13,00,24.20
2002,07,21,13,01,24.10
2002,07,21,13,02,24.00
2002,07,21,13,03,24.00
2002,07,21,13,04,24.10
2002,07,21,13,05,24.10
2002,07,21,13,06,24.30
2002,07,21,13,07,24.40
2002,07,21,13,08,24.40
2002,07,21,13,09,24.50
2002,07,21,13,10,24.70
2002,07,21,13,11,24.90
2002,07,21,13,12,25.00
2002,07,21,13,13,25.00
2002,07,21,13,14,25.00
2002,07,21,13,15,24.80
2002,07,21,13,16,24.60
2002,07,21,13,17,24.40
2002,07,21,13,18,24.20
2002,07,21,13,19,24.00
2002,07,21,13,20,24.00
2002,07,21,13,21,23.90
2002,07,21,13,22,23.90
2002,07,21,13,23,23.80
2002,07,21,13,24,23.80
2002,07,21,13,25,23.80
2002,07,21,13,26,23.70
2002,07,21,13,27,23.70
2002,07,21,13,28,23.80
2002,07,21,13,29,23.80
2002,07,21,13,30,23.90
2002,07,21,13,31,24.10
2002,07,21,13,32,24.20
2002,07,21,13,33,24.20
2002,07,21,13,34,24.10
2002,07,21,13,35,24.10
2002,07,21,13,36,24.10
2002,07,21,13,37,24.30
2002,07,21,13,38,24.50
2002,07,21,13,39,24.60
2002,07,21,13,40,24.50
2002,07,21,13,41,24.40
2002,07,21,13,42,24.30
2002,07,21,13,43,24.20
2002,07,21,13,44,24.10
2002,07,21,13,45,24.10
2002,07,21,13,46,24.00
2002,07,21,13,47,24.10
2002,07,21,13,48,24.10
2002,07,21,13,49,24.10
2002,07,21,13,50,24.20
2002,07,21,13,51,24.20
2002,07,21,13,52,24.10
2002,07,21,13,53,24.20
2002,07,21,13,54,24.30
2002,07,21,13,55,24.40
2002,07,21,13,56,24.40
2002,07,21,13,57,24.40
2002,07,21,13,58,24.30
2002,07,21,13,59,24.20
2002,07,21,14,00,24.20
2002,07,21,14,01,24.20
2002,07,21,14,02,24.50
2002,07,21,14,03,24.50
2002,07,21,14,04,24.70
2002,07,21,14,05,24.70
2002,07,21,14,06,24.80
2002,07,21,14,07,24.90
2002,07,21,14,08,24.90
2002,07,21,14,09,25.00
2002,07,21,14,10,24.90
2002,07,21,14,11,25.00
2002,07,21,14,12,25.20
2002,07,21,14,13,25.40
2002,07,21,14,14,25.50
2002,07,21,14,15,25.70
2002,07,21,14,16,25.80
2002,07,21,14,17,25.50
2002,07,21,14,18,25.20
2002,07,21,14,19,25.10
2002,07,21,14,20,25.10
2002,07,21,14,21,24.90
2002,07,21,14,22,24.70
2002,07,21,14,23,24.60
2002,07,21,14,24,24.70
2002,07,21,14,25,24.70
2002,07,21,14,26,24.70
2002,07,21,14,27,24.70
2002,07,21,14,28,24.80
2002,07,21,14,29,24.80
2002,07,21,14,30,24.90
2002,07,21,14,31,24.90
2002,07,21,14,32,24.80
2002,07,21,14,33,24.90
2002,07,21,14,34,24.90
2002,07,21,14,35,24.90
2002,07,21,14,36,24.80
2002,07,21,14,37,24.80
2002,07,21,14,38,24.70
2002,07,21,14,39,24.70
2002,07,21,14,40,24.80
2002,07,21,14,41,24.90
2002,07,21,14,42,24.90
2002,07,21,14,43,24.90
2002,07,21,14,44,24.90
2002,07,21,14,45,25.10
2002,07,21,14,46,25.10
2002,07,21,14,47,25.20
2002,07,21,14,48,25.30
2002,07,21,14,49,25.40
2002,07,21,14,50,25.50
2002,07,21,14,51,25.40
2002,07,21,14,52,25.40
2002,07,21,14,53,25.50
2002,07,21,14,54,25.30
2002,07,21,14,55,25.20
2002,07,21,14,56,25.10
2002,07,21,14,57,25.10
2002,07,21,14,58,25.20
2002,07,21,14,59,25.30
2002,07,21,15,00,25.40
2002,07,21,15,01,25.50
2002,07,21,15,02,25.50
2002,07,21,15,03,25.60
2002,07,21,15,04,25.80
2002,07,21,15,05,26.00
2002,07,21,15,06,26.20
2002,07,21,15,07,26.50
2002,07,21,15,08,26.80
2002,07,21,15,09,27.00
2002,07,21,15,10,27.30
2002,07,21,15,11,27.40
2002,07,21,15,12,27.50
2002,07,21,15,13,27.60
2002,07,21,15,14,27.60
2002,07,21,15,15,27.60
2002,07,21,15,16,27.60
2002,07,21,15,17,27.60
2002,07,21,15,18,27.70
2002,07,21,15,19,27.70
2002,07,21,15,20,27.70
2002,07,21,15,21,27.80
2002,07,21,15,22,27.80
2002,07,21,15,23,27.70
2002,07,21,15,24,27.70
2002,07,21,15,25,27.70
2002,07,21,15,26,27.80
2002,07,21,15,27,27.80
2002,07,21,15,28,27.60
2002,07,21,15,29,27.60
2002,07,21,15,30,27.80
2002,07,21,15,31,27.80
2002,07,21,15,32,27.70
2002,07,21,15,33,27.70
2002,07,21,15,34,27.80
2002,07,21,15,35,27.90
2002,07,21,15,36,28.10
2002,07,21,15,37,28.30
2002,07,21,15,38,28.40
2002,07,21,15,39,28.50
2002,07,21,15,40,28.50
2002,07,21,15,41,28.40
2002,07,21,15,42,28.40
2002,07,21,15,43,28.30
2002,07,21,15,44,28.30
2002,07,21,15,45,28.40
2002,07,21,15,46,28.60
2002,07,21,15,47,28.50
2002,07,21,15,48,28.40
2002,07,21,15,49,28.40
2002,07,21,15,50,28.40
2002,07,21,15,51,28.40
2002,07,21,15,52,28.40
2002,07,21,15,53,28.40
2002,07,21,15,54,28.40
2002,07,21,15,55,28.40
2002,07,21,15,56,28.60
2002,07,21,15,57,28.70
2002,07,21,15,58,28.70
2002,07,21,15,59,28.70
2002,07,21,16,00,28.70
2002,07,21,16,01,28.60
2002,07,21,16,02,28.30
2002,07,21,16,03,28.30
2002,07,21,16,04,28.20
2002,07,21,16,05,28.10
2002,07,21,16,06,28.10
2002,07,21,16,07,28.10
2002,07,21,16,08,28.10
2002,07,21,16,09,28.10
2002,07,21,16,10,28.10
2002,07,21,16,11,28.10
2002,07,21,16,12,28.10
2002,07,21,16,13,28.10
2002,07,21,16,14,28.10
2002,07,21,16,15,28.10
2002,07,21,16,16,28.10
2002,07,21,16,17,27.80
2002,07,21,16,18,27.10
2002,07,21,16,19,27.10
2002,07,21,16,20,27.10
2002,07,21,16,21,27.10
2002,07,21,16,22,27.20
2002,07,21,16,23,27.20
2002,07,21,16,24,27.20
2002,07,21,16,25,27.20
2002,07,21,16,26,27.30
2002,07,21,16,27,27.50
2002,07,21,16,28,27.90
2002,07,21,16,29,28.20
2002,07,21,16,30,28.20
2002,07,21,16,31,28.20
2002,07,21,16,32,28.20
2002,07,21,16,33,28.20
2002,07,21,16,34,28.20
2002,07,21,16,35,28.20
2002,07,21,16,36,28.20
2002,07,21,16,37,28.20
2002,07,21,16,38,28.20
2002,07,21,16,39,28.20
2002,07,21,16,40,28.20
2002,07,21,16,41,28.20
2002,07,21,16,42,28.20
2002,07,21,16,43,28.20
2002,07,21,16,44,28.20
2002,07,21,16,45,28.20
2002,07,21,16,46,28.20
2002,07,21,16,47,28.20
2002,07,21,16,48,28.20
2002,07,21,16,49,28.20
2002,07,21,16,50,28.20
2002,07,21,16,51,28.20
2002,07,21,16,52,28.20
2002,07,21,16,53,28.20
2002,07,21,16,54,28.20
2002,07,21,16,55,28.20
2002,07,21,16,56,28.20
2002,07,21,16,57,28.20
2002,07,21,16,58,28.10
2002,07,21,16,59,28.00
2002,07,21,17,00,28.00
2002,07,21,17,01,28.00
2002,07,21,17,02,28.00
2002,07,21,17,03,28.00
2002,07,21,17,04,28.00
2002,07,21,17,05,28.00
2002,07,21,17,06,28.00
2002,07,21,17,07,28.00
2002,07,21,17,08,28.00
2002,07,21,17,09,28.00
2002,07,21,17,10,28.00
2002,07,21,17,11,28.00
2002,07,21,17,12,28.00
2002,07,21,17,13,28.00
2002,07,21,17,14,28.00
2002,07,21,17,15,28.30
2002,07,21,17,16,28.70
2002,07,21,17,17,28.70
2002,07,21,17,18,28.70
2002,07,21,17,19,28.70